Location: Kellogg
(38.0159°N, 90.0546°W)
Time: 08:58:46
(UTC+00:00)

Altair - Pass Details

Date: 21 September 2024
Orbit: 1501 x 1682 km, 47.2° (Epoch: 07 October)

Event Time Altitude Azimuth Distance (km) Brightness Sun altitude
Rises 13:18:40 0° 301° (WNW) 4,934 9.6 16.9°
Reaches altitude 10° 13:21:52 10° 299° (WNW) 3,948 9.1 17.6°
Maximum altitude 13:31:54 67° 220° (SW) 1,791 8.1 19.5°
Drops below altitude 10° 13:41:45 10° 140° (SE) 3,875 10.7 21.3°
Sets 13:44:52 0° 138° (SE) 4,839 11.1 21.9°
